Midland, MI

9:05 AM EDT on September 19, 2017 (GMT -0400)
Barstow

Weather History for KIKW - June, 2014

Change the Weather History Date:

Sunday, June 22, 2014

  Actual Average (KMBS) Record (KMBS)
Temperature  
Mean Temperature 70 °F -  
Max Temperature 83 °F 79 °F 89 °F (1998)
Min Temperature 56 °F 57 °F 50 °F (2007)
Cooling Degree Days 4    
Growing Degree Days 20 (Base 50)    
Moisture  
Dew Point 57 °F    
Average Humidity 63    
Maximum Humidity 92    
Minimum Humidity 43    
Precipitation  
Precipitation 0.01 in - - ()
Sea Level Pressure  
Sea Level Pressure 29.92 in    
Wind  
Wind Speed 3 mph (SE)    
Max Wind Speed 10 mph    
Max Gust Speed 21 mph    
Visibility 10 miles    
Events Rain    
Averages and records for this station are not official NWS values.
T = Trace of Precipitation, MM = Missing Value Source: NWS Daily Summary

Daily Weather History Graph

Daily Weather History Graph

Search for Another Location

Airport or City:

Trip Planner

Search our weather history database for the weather conditions in past years. The results will help you decide how hot, cold, wet, or windy it might be!

Date:

Astronomy

Jun. 22, 2014 Rise Set
Actual Time 5:55 AM EDT 9:22 PM EDT
Civil Twilight 5:19 AM EDT 9:58 PM EDT
Nautical Twilight 4:32 AM EDT 10:45 PM EDT
Astronomical Twilight 3:32 AM EDT 11:45 PM EDT
Moon 2:50 AM EDT (6/22) 4:56 PM EDT (6/22)
Length of Visible Light 16h 38m
Length of Day
15h 26m
Waning Crescent, 21% of the Moon is Illuminated
Jun 22
Waning Crescent
Jun 27
New
Jul 5
First Quarter
Jul 12
Full
Jul 18
Last Quarter

Hourly Weather History & Observations

Time (EDT) Temp. Heat Index Dew Point Humidity Pressure Visibility Wind Dir Wind Speed Gust Speed Precip Events Conditions
12:11 AM 63.1 °F - 56.7 °F 79% 29.94 in 10.0 mi Calm Calm - N/A   Scattered Clouds
12:31 AM 63.1 °F - 57.0 °F 80% 29.94 in 10.0 mi Calm Calm - N/A   Mostly Cloudy
12:51 AM 63.5 °F - 57.2 °F 80% 29.95 in 10.0 mi Calm Calm - N/A   Overcast
1:11 AM 63.7 °F - 58.1 °F 82% 29.94 in 10.0 mi Calm Calm - N/A   Overcast
1:31 AM 64.4 °F - 59.2 °F 83% 29.94 in 7.0 mi East 3.5 mph - N/A Rain Light Rain
1:51 AM 63.5 °F - 60.1 °F 89% 29.95 in 10.0 mi North 3.5 mph - 0.01 in Rain Light Rain
2:11 AM 63.1 °F - 60.4 °F 91% 29.94 in 10.0 mi East 5.8 mph - N/A   Overcast
2:31 AM 63.5 °F - 59.4 °F 86% 29.93 in 10.0 mi East 5.8 mph - N/A   Overcast
2:51 AM 63.9 °F - 55.4 °F 74% 29.94 in 10.0 mi SE 3.5 mph - N/A   Overcast
3:11 AM 63.3 °F - 53.8 °F 71% 29.93 in 10.0 mi East 4.6 mph - N/A   Overcast
3:31 AM 61.9 °F - 54.9 °F 78% 29.92 in 10.0 mi ENE 3.5 mph - N/A   Overcast
3:51 AM 60.6 °F - 54.5 °F 80% 29.92 in 10.0 mi NNE 4.6 mph - N/A   Mostly Cloudy
4:11 AM 60.6 °F - 54.7 °F 81% 29.92 in 10.0 mi Calm Calm - N/A   Mostly Cloudy
4:31 AM 59.7 °F - 54.1 °F 82% 29.92 in 10.0 mi ENE 3.5 mph - N/A   Mostly Cloudy
4:51 AM 59.2 °F - 54.3 °F 84% 29.92 in 10.0 mi Calm Calm - N/A   Mostly Cloudy
5:11 AM 58.6 °F - 52.7 °F 81% 29.91 in 10.0 mi Calm Calm - N/A   Scattered Clouds
5:31 AM 57.2 °F - 54.5 °F 91% 29.92 in 10.0 mi Calm Calm - N/A   Mostly Cloudy
5:51 AM 57.2 °F - 54.7 °F 91% 29.92 in 10.0 mi Calm Calm - N/A   Scattered Clouds
6:11 AM 56.3 °F - 54.0 °F 92% 29.92 in 10.0 mi Calm Calm - N/A   Scattered Clouds
6:31 AM 56.7 °F - 54.5 °F 92% 29.92 in 10.0 mi Calm Calm - N/A   Clear
6:51 AM 58.1 °F - 55.2 °F 90% 29.92 in 10.0 mi ENE 3.5 mph - N/A   Clear
7:11 AM 60.3 °F - 55.4 °F 84% 29.93 in 10.0 mi Calm Calm - N/A   Clear
7:31 AM 61.7 °F - 55.9 °F 81% 29.93 in 10.0 mi Calm Calm - N/A   Clear
7:51 AM 64.6 °F - 54.1 °F 69% 29.94 in 10.0 mi ESE 3.5 mph - N/A   Mostly Cloudy
8:11 AM 65.3 °F - 54.1 °F 67% 29.94 in 10.0 mi Calm Calm - N/A   Overcast
8:31 AM 65.5 °F - 54.1 °F 67% 29.94 in 10.0 mi Calm Calm - N/A   Overcast
8:51 AM 65.3 °F - 57.0 °F 75% 29.95 in 10.0 mi Calm Calm - N/A   Overcast
9:11 AM 66.4 °F - 55.6 °F 68% 29.95 in 10.0 mi Calm Calm - N/A   Overcast
9:31 AM 66.6 °F - 55.6 °F 68% 29.95 in 10.0 mi Calm Calm - N/A   Overcast
9:51 AM 67.8 °F - 56.1 °F 66% 29.95 in 10.0 mi Calm Calm - N/A   Overcast
10:12 AM 69.1 °F - 57.2 °F 66% 29.95 in 10.0 mi Calm Calm - N/A   Overcast
10:31 AM 69.6 °F - 57.4 °F 65% 29.95 in 10.0 mi Calm Calm - N/A   Overcast
10:51 AM 70.3 °F - 57.2 °F 63% 29.95 in 10.0 mi Calm Calm - N/A   Overcast
11:11 AM 71.8 °F - 58.1 °F 62% 29.95 in 10.0 mi Calm Calm - N/A   Mostly Cloudy
11:31 AM 73.6 °F - 57.9 °F 58% 29.96 in 10.0 mi Calm Calm - N/A   Scattered Clouds
11:51 AM 73.8 °F - 56.5 °F 55% 29.96 in 10.0 mi Calm Calm - N/A   Mostly Cloudy
12:11 PM 77.0 °F - 57.2 °F 50% 29.95 in 10.0 mi Calm Calm - N/A   Overcast
12:31 PM 77.2 °F - 55.0 °F 46% 29.95 in 10.0 mi Calm Calm - N/A   Mostly Cloudy
12:51 PM 77.9 °F - 55.0 °F 45% 29.94 in 10.0 mi Calm Calm - N/A   Scattered Clouds
1:11 PM 78.3 °F - 55.6 °F 45% 29.94 in 7.0 mi Calm Calm - N/A   Scattered Clouds
1:31 PM 79.7 °F - 56.7 °F 45% 29.93 in 10.0 mi SE 4.6 mph - N/A   Clear
1:51 PM 80.1 °F 80.3 °F 56.1 °F 44% 29.93 in 10.0 mi Calm Calm - N/A   Scattered Clouds
2:11 PM 80.6 °F 80.7 °F 57.0 °F 44% 29.92 in 10.0 mi South 3.5 mph - N/A   Scattered Clouds
2:31 PM 81.0 °F 80.9 °F 56.3 °F 43% 29.92 in 10.0 mi South 4.6 mph - N/A   Clear
2:51 PM 80.8 °F 80.8 °F 56.7 °F 43% 29.92 in 10.0 mi SE 5.8 mph - N/A   Scattered Clouds
3:02 PM 81.9 °F 81.9 °F 58.3 °F 45% 29.92 in 10.0 mi South 3.5 mph 20.7 mph N/A   Mostly Cloudy
3:31 PM 81.3 °F 81.8 °F 59.9 °F 48% 29.91 in 10.0 mi SSE 10.4 mph - N/A   Mostly Cloudy
3:51 PM 82.4 °F 82.6 °F 59.9 °F 46% 29.90 in 10.0 mi South 6.9 mph - N/A   Scattered Clouds
4:11 PM 82.4 °F 82.5 °F 59.2 °F 45% 29.90 in 10.0 mi South 8.1 mph - N/A   Clear
4:31 PM 81.9 °F 81.9 °F 58.8 °F 45% 29.90 in 10.0 mi SE 6.9 mph - N/A   Scattered Clouds
4:51 PM 83.3 °F 83.4 °F 59.9 °F 45% 29.90 in 10.0 mi SSE 8.1 mph - N/A   Scattered Clouds
5:11 PM 82.8 °F 82.5 °F 58.5 °F 43% 29.89 in 10.0 mi SSW 6.9 mph - N/A   Scattered Clouds
5:31 PM 81.3 °F 81.6 °F 58.8 °F 46% 29.89 in 10.0 mi South 8.1 mph - N/A   Scattered Clouds
5:51 PM 82.6 °F 82.3 °F 57.9 °F 43% 29.89 in 10.0 mi South 9.2 mph - N/A   Scattered Clouds
6:11 PM 82.4 °F 82.5 °F 58.8 °F 45% 29.88 in 7.0 mi SSE 8.1 mph - N/A   Clear
6:31 PM 82.2 °F 82.4 °F 59.7 °F 46% 29.87 in 7.0 mi SSE 8.1 mph - N/A   Clear
6:51 PM 81.3 °F 81.7 °F 59.5 °F 47% 29.87 in 10.0 mi SSE 8.1 mph - N/A   Clear
7:11 PM 81.5 °F 82.0 °F 60.1 °F 48% 29.86 in 10.0 mi SSE 9.2 mph - N/A   Clear
7:31 PM 80.8 °F 81.3 °F 59.2 °F 48% 29.86 in 10.0 mi SSE 9.2 mph - N/A   Clear
7:51 PM 79.9 °F - 59.9 °F 50% 29.87 in 10.0 mi South 6.9 mph - N/A   Clear
8:11 PM 79.2 °F - 59.9 °F 52% 29.87 in 10.0 mi South 8.1 mph - N/A   Clear
8:31 PM 78.8 °F - 59.0 °F 51% 29.88 in 10.0 mi SSE 8.1 mph - N/A   Scattered Clouds
8:51 PM 78.3 °F - 58.3 °F 50% 29.88 in 10.0 mi SE 5.8 mph - N/A   Scattered Clouds
9:11 PM 78.4 °F - 58.3 °F 50% 29.88 in 10.0 mi SSE 5.8 mph - N/A   Mostly Cloudy
9:31 PM 77.4 °F - 58.1 °F 51% 29.88 in 10.0 mi SSE 5.8 mph - N/A   Scattered Clouds
9:51 PM 77.2 °F - 58.3 °F 52% 29.88 in 10.0 mi SSE 5.8 mph - N/A   Scattered Clouds
10:11 PM 76.1 °F - 59.0 °F 55% 29.89 in 10.0 mi South 4.6 mph - N/A   Scattered Clouds
10:31 PM 75.4 °F - 59.2 °F 57% 29.89 in 10.0 mi SSE 5.8 mph - N/A   Scattered Clouds
10:51 PM 74.5 °F - 59.4 °F 59% 29.89 in 10.0 mi SSE 4.6 mph - N/A   Clear
11:11 PM 74.3 °F - 59.4 °F 60% 29.90 in 10.0 mi SSE 5.8 mph - N/A   Clear
11:31 PM 74.5 °F - 57.6 °F 55% 29.90 in 10.0 mi North - - N/A   Mostly Cloudy
11:51 PM 74.1 °F - 56.1 °F 53% 29.90 in 10.0 mi SSE 8.1 mph - N/A   Mostly Cloudy